Time,TemperatureF,DewpointF,PressureIn,WindDirection,WindDirectionDegrees,WindSpeedMPH,WindSpeedGustMPH,Humidity,HourlyPrecipIn,Conditions,Clouds,dailyrainin,SoftwareType,DateUTC
2013-02-18 00:13:00,24.5,5.0,30.20,NW,304,13.0,-999.0,44,-99.99,,,0.00,weatherlink.com 1.10,2013-02-18 05:13:00,
2013-02-18 00:28:00,24.5,5.0,30.20,NNW,332,11.0,-999.0,44,-99.99,,,0.00,weatherlink.com 1.10,2013-02-18 05:28:00,
2013-02-18 00:43:00,24.4,5.0,30.21,NW,325,0.0,-999.0,44,-99.99,,,0.00,weatherlink.com 1.10,2013-02-18 05:43:00,
2013-02-18 00:58:00,24.1,5.0,30.21,West,265,7.0,-999.0,45,-99.99,,,0.00,weatherlink.com 1.10,2013-02-18 05:58:00,
2013-02-18 01:13:00,23.9,5.0,30.22,WNW,301,14.0,-999.0,45,-99.99,,,0.00,weatherlink.com 1.10,2013-02-18 06:13:00,
2013-02-18 01:28:00,23.8,5.0,30.23,WNW,285,9.0,-999.0,44,-99.99,,,0.00,weatherlink.com 1.10,2013-02-18 06:28:00,
2013-02-18 01:43:00,23.6,5.0,30.23,NNW,334,6.0,-999.0,45,-99.99,,,0.00,weatherlink.com 1.10,2013-02-18 06:43:00,
2013-02-18 01:58:00,23.5,5.0,30.23,WNW,284,5.0,-999.0,45,-99.99,,,0.00,weatherlink.com 1.10,2013-02-18 06:58:00,
2013-02-18 02:13:00,23.2,5.0,30.23,WNW,282,4.0,-999.0,45,-99.99,,,0.00,weatherlink.com 1.10,2013-02-18 07:13:00,
2013-02-18 02:28:00,23.0,5.0,30.23,WSW,249,0.0,-999.0,46,-99.99,,,0.00,weatherlink.com 1.10,2013-02-18 07:28:00,
2013-02-18 02:43:00,22.9,5.0,30.24,WNW,287,2.0,-999.0,46,-99.99,,,0.00,weatherlink.com 1.10,2013-02-18 07:43:00,
2013-02-18 02:58:00,22.7,5.0,30.24,WNW,296,4.0,-999.0,47,-99.99,,,0.00,weatherlink.com 1.10,2013-02-18 07:58:00,
2013-02-18 03:13:00,22.5,5.0,30.25,WNW,292,2.0,-999.0,47,-99.99,,,0.00,weatherlink.com 1.10,2013-02-18 08:13:00,
2013-02-18 03:28:00,22.4,5.0,30.25,WNW,299,6.0,-999.0,47,-99.99,,,0.00,weatherlink.com 1.10,2013-02-18 08:28:00,
2013-02-18 03:43:00,22.4,5.0,30.25,WNW,298,0.0,-999.0,47,-99.99,,,0.00,weatherlink.com 1.10,2013-02-18 08:43:00,
2013-02-18 03:58:00,22.2,5.0,30.26,NW,311,1.0,-999.0,47,-99.99,,,0.00,weatherlink.com 1.10,2013-02-18 08:58:00,
2013-02-18 04:13:00,22.2,5.0,30.26,West,280,2.0,-999.0,47,-99.99,,,0.00,weatherlink.com 1.10,2013-02-18 09:13:00,
2013-02-18 04:28:00,21.9,4.0,30.26,WNW,284,4.0,-999.0,47,-99.99,,,0.00,weatherlink.com 1.10,2013-02-18 09:28:00,
2013-02-18 04:58:00,21.8,5.0,30.29,West,276,6.0,-999.0,48,-99.99,,,0.00,weatherlink.com 1.10,2013-02-18 09:58:00,
2013-02-18 05:13:00,21.8,5.0,30.29,West,276,4.0,-999.0,48,-99.99,,,0.00,weatherlink.com 1.10,2013-02-18 10:13:00,
2013-02-18 05:28:00,21.4,5.0,30.31,WNW,298,0.0,-999.0,49,-99.99,,,0.00,weatherlink.com 1.10,2013-02-18 10:28:00,
2013-02-18 05:43:00,21.3,5.0,30.31,WNW,303,2.0,-999.0,50,-99.99,,,0.00,weatherlink.com 1.10,2013-02-18 10:43:00,
2013-02-18 05:58:00,21.1,5.0,30.32,WNW,284,0.0,-999.0,50,-99.99,,,0.00,weatherlink.com 1.10,2013-02-18 10:58:00,
2013-02-18 06:13:00,21.0,5.0,30.32,West,265,0.0,-999.0,51,-99.99,,,0.00,weatherlink.com 1.10,2013-02-18 11:13:00,
2013-02-18 06:28:00,20.6,5.0,30.33,WNW,282,0.0,-999.0,51,-99.99,,,0.00,weatherlink.com 1.10,2013-02-18 11:28:00,
2013-02-18 06:43:00,20.5,6.0,30.34,West,259,0.0,-999.0,53,-99.99,,,0.00,weatherlink.com 1.10,2013-02-18 11:43:00,
2013-02-18 06:58:00,20.6,6.0,30.34,West,276,8.0,-999.0,53,-99.99,,,0.00,weatherlink.com 1.10,2013-02-18 11:58:00,
2013-02-18 07:13:00,21.0,6.0,30.35,NW,320,0.0,-999.0,53,-99.99,,,0.00,weatherlink.com 1.10,2013-02-18 12:13:00,
2013-02-18 07:28:00,21.3,6.0,30.35,WNW,283,0.0,-999.0,53,-99.99,,,0.00,weatherlink.com 1.10,2013-02-18 12:28:00,
2013-02-18 07:43:00,21.9,7.0,30.37,WNW,283,3.0,-999.0,52,-99.99,,,0.00,weatherlink.com 1.10,2013-02-18 12:43:00,
2013-02-18 07:58:00,22.7,7.0,30.37,WNW,295,5.0,-999.0,52,-99.99,,,0.00,weatherlink.com 1.10,2013-02-18 12:58:00,
2013-02-18 08:13:00,23.5,7.0,30.37,NNW,327,6.0,-999.0,50,-99.99,,,0.00,weatherlink.com 1.10,2013-02-18 13:13:00,
2013-02-18 08:43:00,24.8,8.0,30.38,WNW,299,3.0,-999.0,48,-99.99,,,0.00,weatherlink.com 1.10,2013-02-18 13:43:00,
2013-02-18 08:58:00,25.7,7.0,30.38,NW,304,9.0,-999.0,46,-99.99,,,0.00,weatherlink.com 1.10,2013-02-18 13:58:00,
2013-02-18 09:13:00,25.7,7.0,30.38,WNW,297,11.0,-999.0,45,-99.99,,,0.00,weatherlink.com 1.10,2013-02-18 14:13:00,
2013-02-18 09:28:00,26.3,7.0,30.38,WNW,285,6.0,-999.0,44,-99.99,,,0.00,weatherlink.com 1.10,2013-02-18 14:28:00,
2013-02-18 09:43:00,27.0,7.0,30.38,West,278,6.0,-999.0,43,-99.99,,,0.00,weatherlink.com 1.10,2013-02-18 14:43:00,
2013-02-18 09:58:00,27.8,8.0,30.38,West,278,4.0,-999.0,44,-99.99,,,0.00,weatherlink.com 1.10,2013-02-18 14:58:00,
2013-02-18 10:13:00,28.4,8.0,30.38,West,276,4.0,-999.0,42,-99.99,,,0.00,weatherlink.com 1.10,2013-02-18 15:13:00,
2013-02-18 10:28:00,28.5,7.0,30.38,NW,317,2.0,-999.0,40,-99.99,,,0.00,weatherlink.com 1.10,2013-02-18 15:28:00,
2013-02-18 10:43:00,29.5,8.0,30.38,North,6,4.0,-999.0,40,-99.99,,,0.00,weatherlink.com 1.10,2013-02-18 15:43:00,
2013-02-18 10:58:00,29.5,7.0,30.38,West,266,1.0,-999.0,38,-99.99,,,0.00,weatherlink.com 1.10,2013-02-18 15:58:00,
2013-02-18 11:13:00,30.0,5.0,30.37,NNW,328,3.0,-999.0,35,-99.99,,,0.00,weatherlink.com 1.10,2013-02-18 16:13:00,
2013-02-18 11:28:00,31.3,6.0,30.37,NW,308,7.0,-999.0,35,-99.99,,,0.00,weatherlink.com 1.10,2013-02-18 16:28:00,
2013-02-18 11:43:00,31.6,7.0,30.36,WNW,302,2.0,-999.0,36,-99.99,,,0.00,weatherlink.com 1.10,2013-02-18 16:43:00,
2013-02-18 11:58:00,32.9,9.0,30.35,NW,304,2.0,-999.0,36,-99.99,,,0.00,weatherlink.com 1.10,2013-02-18 16:58:00,
2013-02-18 12:13:00,33.1,9.0,30.35,NNW,333,9.0,-999.0,36,-99.99,,,0.00,weatherlink.com 1.10,2013-02-18 17:13:00,
2013-02-18 12:28:00,34.4,7.0,30.34,NW,311,1.0,-999.0,31,-99.99,,,0.00,weatherlink.com 1.10,2013-02-18 17:28:00,
2013-02-18 12:43:00,34.1,6.0,30.33,NW,306,3.0,-999.0,31,-99.99,,,0.00,weatherlink.com 1.10,2013-02-18 17:43:00,
2013-02-18 12:58:00,34.6,7.0,30.32,WNW,295,4.0,-999.0,31,-99.99,,,0.00,weatherlink.com 1.10,2013-02-18 17:58:00,
2013-02-18 13:13:00,35.3,7.0,30.32,WNW,303,0.0,-999.0,31,-99.99,,,0.00,weatherlink.com 1.10,2013-02-18 18:13:00,
2013-02-18 13:28:00,35.8,8.0,30.31,West,277,6.0,-999.0,32,-99.99,,,0.00,weatherlink.com 1.10,2013-02-18 18:28:00,
2013-02-18 13:43:00,37.0,10.0,30.30,WSW,246,2.0,-999.0,32,-99.99,,,0.00,weatherlink.com 1.10,2013-02-18 18:43:00,
2013-02-18 13:59:00,37.5,9.0,30.29,SW,217,5.0,-999.0,30,-99.99,,,0.00,weatherlink.com 1.10,2013-02-18 18:59:00,
2013-02-18 14:13:00,37.6,9.0,30.29,SW,233,5.0,-999.0,30,-99.99,,,0.00,weatherlink.com 1.10,2013-02-18 19:13:00,
2013-02-18 14:28:00,38.5,9.0,30.29,NW,305,3.0,-999.0,29,-99.99,,,0.00,weatherlink.com 1.10,2013-02-18 19:28:00,
2013-02-18 14:43:00,38.3,8.0,30.28,WSW,239,2.0,-999.0,29,-99.99,,,0.00,weatherlink.com 1.10,2013-02-18 19:43:00,
2013-02-18 14:58:00,38.8,8.0,30.27,SSW,205,1.0,-999.0,28,-99.99,,,0.00,weatherlink.com 1.10,2013-02-18 19:58:00,
2013-02-18 15:13:00,39.6,10.0,30.26,WSW,247,1.0,-999.0,29,-99.99,,,0.00,weatherlink.com 1.10,2013-02-18 20:13:00,
2013-02-18 15:29:00,40.1,9.0,30.26,SSW,210,0.0,-999.0,28,-99.99,,,0.00,weatherlink.com 1.10,2013-02-18 20:29:00,
2013-02-18 15:43:00,40.1,8.0,30.26,South,172,4.0,-999.0,27,-99.99,,,0.00,weatherlink.com 1.10,2013-02-18 20:43:00,
2013-02-18 15:59:00,39.9,9.0,30.26,WNW,287,1.0,-999.0,28,-99.99,,,0.00,weatherlink.com 1.10,2013-02-18 20:59:00,
2013-02-18 16:13:00,40.3,9.0,30.26,SSE,163,4.0,-999.0,28,-99.99,,,0.00,weatherlink.com 1.10,2013-02-18 21:13:00,
2013-02-18 16:29:00,38.9,14.0,30.26,SSE,162,4.0,-999.0,37,-99.99,,,0.00,weatherlink.com 1.10,2013-02-18 21:29:00,
2013-02-18 16:43:00,38.2,16.0,30.25,South,172,1.0,-999.0,40,-99.99,,,0.00,weatherlink.com 1.10,2013-02-18 21:43:00,
2013-02-18 16:58:00,37.2,18.0,30.25,SSE,150,4.0,-999.0,45,-99.99,,,0.00,weatherlink.com 1.10,2013-02-18 21:58:00,
2013-02-18 17:13:00,36.2,19.0,30.25,SSE,162,0.0,-999.0,49,-99.99,,,0.00,weatherlink.com 1.10,2013-02-18 22:13:00,
2013-02-18 17:29:00,35.6,19.0,30.26,SSE,162,0.0,-999.0,51,-99.99,,,0.00,weatherlink.com 1.10,2013-02-18 22:29:00,
2013-02-18 17:43:00,34.9,19.0,30.26,SSE,162,0.0,-999.0,52,-99.99,,,0.00,weatherlink.com 1.10,2013-02-18 22:43:00,
2013-02-18 17:58:00,33.7,19.0,30.26,SSE,162,0.0,-999.0,55,-99.99,,,0.00,weatherlink.com 1.10,2013-02-18 22:58:00,
2013-02-18 18:29:00,32.1,19.0,30.27,SSE,162,0.0,-999.0,59,-99.99,,,0.00,weatherlink.com 1.10,2013-02-18 23:29:00,
2013-02-18 18:44:00,31.8,20.0,30.27,SSE,162,0.0,-999.0,61,-99.99,,,0.00,weatherlink.com 1.10,2013-02-18 23:44:00,
2013-02-18 18:59:00,31.3,20.0,30.27,SSE,162,0.0,-999.0,62,-99.99,,,0.00,weatherlink.com 1.10,2013-02-18 23:59:00,
2013-02-18 19:14:00,31.9,19.0,30.27,SSE,162,0.0,-999.0,60,-99.99,,,0.00,weatherlink.com 1.10,2013-02-19 00:14:00,
2013-02-18 19:30:00,32.1,19.0,30.26,SSE,162,2.0,-999.0,59,-99.99,,,0.00,weatherlink.com 1.10,2013-02-19 00:30:00,
2013-02-18 19:44:00,33.1,17.0,30.26,SE,146,1.0,-999.0,51,-99.99,,,0.00,weatherlink.com 1.10,2013-02-19 00:44:00,
2013-02-18 19:59:00,33.7,18.0,30.25,SSE,162,0.0,-999.0,53,-99.99,,,0.00,weatherlink.com 1.10,2013-02-19 00:59:00,
2013-02-18 20:14:00,33.8,22.0,30.25,SE,127,0.0,-999.0,63,-99.99,,,0.00,weatherlink.com 1.10,2013-02-19 01:14:00,
2013-02-18 20:29:00,33.8,25.0,30.24,SSE,154,2.0,-999.0,70,-99.99,,,0.00,weatherlink.com 1.10,2013-02-19 01:29:00,
2013-02-18 20:44:00,33.7,26.0,30.24,SE,136,0.0,-999.0,73,-99.99,,,0.00,weatherlink.com 1.10,2013-02-19 01:44:00,
2013-02-18 20:59:00,33.8,25.0,30.24,SSE,153,0.0,-999.0,71,-99.99,,,0.00,weatherlink.com 1.10,2013-02-19 01:59:00,
2013-02-18 21:14:00,34.1,26.0,30.24,SE,136,0.0,-999.0,71,-99.99,,,0.00,weatherlink.com 1.10,2013-02-19 02:14:00,
2013-02-18 21:29:00,34.3,26.0,30.23,SE,144,2.0,-999.0,73,-99.99,,,0.00,weatherlink.com 1.10,2013-02-19 02:29:00,
2013-02-18 21:44:00,34.4,27.0,30.23,SSE,160,3.0,-999.0,74,-99.99,,,0.00,weatherlink.com 1.10,2013-02-19 02:44:00,
2013-02-18 21:59:00,34.4,27.0,30.22,SSE,153,6.0,-999.0,73,-99.99,,,0.00,weatherlink.com 1.10,2013-02-19 02:59:00,
2013-02-18 22:14:00,34.6,25.0,30.21,SE,141,1.0,-999.0,69,-99.99,,,0.00,weatherlink.com 1.10,2013-02-19 03:14:00,
2013-02-18 22:29:00,34.9,23.0,30.20,SSW,207,0.0,-999.0,63,-99.99,,,0.00,weatherlink.com 1.10,2013-02-19 03:29:00,
2013-02-18 22:44:00,35.2,22.0,30.20,SSE,153,2.0,-999.0,59,-99.99,,,0.00,weatherlink.com 1.10,2013-02-19 03:44:00,
2013-02-18 22:59:00,35.3,21.0,30.20,South,179,3.0,-999.0,56,-99.99,,,0.00,weatherlink.com 1.10,2013-02-19 03:59:00,
2013-02-18 23:14:00,35.3,20.0,30.20,South,186,0.0,-999.0,54,-99.99,,,0.00,weatherlink.com 1.10,2013-02-19 04:14:00,
2013-02-18 23:44:00,34.9,20.0,30.19,SSE,160,0.0,-999.0,54,-99.99,,,0.00,weatherlink.com 1.10,2013-02-19 04:44:00,
2013-02-18 23:59:00,34.9,19.0,30.19,SSE,164,0.0,-999.0,53,-99.99,,,0.00,weatherlink.com 1.10,2013-02-19 04:59:00,